EZY16TH EGGD-EHAM

Flight info

Callsign EZY16TH
Flight time N/A
Altitude 29000
Route YORQI L607 ALHAD P72 IPRIL M197 REDFA
Aircraft A320/M-SDE3FGHIRWY/LB1

Departure

Time 2026-05-03 22:57
Airport Bristol Airport (EGGD)

Arrival

Time N/A
Airport Amsterdam Airport Schiphol (EHAM)
Time Latitude Longitude Altitude Speed Heading
2026-05-03 22:37 51.38546 -2.71481 612 ft 0 kts 356°
2026-05-03 22:49 51.38544 -2.71481 612 ft 2 kts 356°
2026-05-03 22:50 51.38519 -2.71478 612 ft 3 kts 356°
2026-05-03 22:50 51.38515 -2.71478 612 ft 0 kts 356°
2026-05-03 22:50 51.38512 -2.71478 612 ft 2 kts 356°
2026-05-03 22:50 51.38495 -2.71476 612 ft 2 kts 356°
2026-05-03 22:51 51.38478 -2.71474 612 ft 3 kts 356°
2026-05-03 22:51 51.38463 -2.71468 612 ft 2 kts 335°
2026-05-03 22:51 51.38449 -2.71456 621 ft 2 kts 344°
2026-05-03 22:51 51.38433 -2.71454 617 ft 2 kts 327°
2026-05-03 22:52 51.38433 -2.71458 616 ft 1 kts 305°
2026-05-03 22:52 51.38433 -2.71459 616 ft 0 kts 303°
2026-05-03 22:53 51.38434 -2.71462 615 ft 2 kts 303°
2026-05-03 22:54 51.38427 -2.71512 609 ft 7 kts 242°
2026-05-03 22:54 51.38427 -2.71604 610 ft 3 kts 229°
2026-05-03 22:54 51.38370 -2.71512 609 ft 24 kts 147°
2026-05-03 22:54 51.38287 -2.71514 610 ft 14 kts 257°
2026-05-03 22:55 51.38272 -2.71819 616 ft 39 kts 266°
2026-05-03 22:55 51.38250 -2.72351 629 ft 55 kts 266°
2026-05-03 22:55 51.38235 -2.72832 629 ft 15 kts 264°
2026-05-03 22:55 51.38214 -2.72919 631 ft 2 kts 290°
2026-05-03 22:56 51.38228 -2.72907 633 ft 2 kts 40°
2026-05-03 22:56 51.38229 -2.72900 632 ft 0 kts 64°
2026-05-03 22:56 51.38233 -2.72878 629 ft 7 kts 82°
2026-05-03 22:56 51.38233 -2.72870 629 ft 0 kts 84°
2026-05-03 22:57 51.38238 -2.72703 639 ft 54 kts 88°
2026-05-03 22:57 51.38280 -2.71573 618 ft 146 kts 86°
2026-05-03 22:57 51.38376 -2.69735 1187 ft 171 kts 84°
2026-05-03 22:57 51.38473 -2.67817 2170 ft 179 kts 87°
2026-05-03 22:58 51.38531 -2.65717 2870 ft 197 kts 88°
2026-05-03 22:58 51.38586 -2.63398 3268 ft 218 kts 88°
2026-05-03 22:58 51.38649 -2.60820 3726 ft 244 kts 88°
2026-05-03 22:58 51.38733 -2.58003 4444 ft 260 kts 84°
2026-05-03 22:59 51.39352 -2.55273 5337 ft 269 kts 52°
2026-05-03 22:59 51.40777 -2.53252 6014 ft 277 kts 34°
2026-05-03 22:59 51.42440 -2.51657 7017 ft 280 kts 29°
2026-05-03 22:59 51.44164 -2.50213 7951 ft 284 kts 27°
2026-05-03 23:00 51.45928 -2.48721 8884 ft 288 kts 30°
2026-05-03 23:00 51.47689 -2.47114 9807 ft 293 kts 31°
2026-05-03 23:00 51.49423 -2.45249 10338 ft 310 kts 45°
2026-05-03 23:00 51.50589 -2.42251 10641 ft 330 kts 73°
2026-05-03 23:01 51.50959 -2.39835 10802 ft 345 kts 82°
2026-05-03 23:01 51.51236 -2.35874 10924 ft 370 kts 88°
2026-05-03 23:01 51.51256 -2.31642 10948 ft 384 kts 95°
2026-05-03 23:01 51.51047 -2.27351 10948 ft 387 kts 96°
2026-05-03 23:02 51.50813 -2.23041 10945 ft 387 kts 97°
2026-05-03 23:02 51.50552 -2.18738 10945 ft 387 kts 97°
2026-05-03 23:02 51.50271 -2.14436 10945 ft 387 kts 97°
2026-05-03 23:02 51.49974 -2.10138 10944 ft 387 kts 98°
2026-05-03 23:03 51.49666 -2.05846 10945 ft 387 kts 98°
2026-05-03 23:03 51.49352 -2.01557 10949 ft 387 kts 98°
2026-05-03 23:03 51.49039 -1.97262 10944 ft 387 kts 98°
2026-05-03 23:03 51.48728 -1.92971 10944 ft 387 kts 98°
2026-05-03 23:04 51.48418 -1.88678 10942 ft 388 kts 98°
2026-05-03 23:04 51.48108 -1.84370 10943 ft 389 kts 98°
2026-05-03 23:04 51.47797 -1.80068 10947 ft 389 kts 98°
2026-05-03 23:04 51.47484 -1.75765 10943 ft 388 kts 98°
2026-05-03 23:05 51.47169 -1.71465 10945 ft 388 kts 98°
2026-05-03 23:05 51.46819 -1.67171 10943 ft 388 kts 102°